• In Netherlands
  • List of Countries
  • For 7 days
  • Water Temperature
  • Satellite Maps
  • Weather Map
  • Weather Widgets
  • user-avatar
    Login

    Hourly Weather Santiago de Compostela

    Today, 15 November, Thursday

    Time Temperature Precipitation Wind Pressure Humidity
    00:00 +10°C° 0 mm 2 mps 739 mmHg 90%
    01:00 +10°C° 0 mm 2 mps 739 mmHg 90%
    02:00 +11°C° 0 mm 1 mps 739 mmHg 90%
    03:00 +11°C° 0 mm 1 mps 739 mmHg 90%
    04:00 +11°C° 0 mm 1 mps 739 mmHg 90%
    05:00 +11°C° 0 mm 1 mps 739 mmHg 90%
    06:00 +12°C° 0 mm 1 mps 740 mmHg 87%
    07:00 +13°C° 0 mm 1 mps 740 mmHg 85%
    08:00 +13°C° 0 mm 1 mps 740 mmHg 82%
    09:00 +16°C° 0 mm 1 mps 740 mmHg 75%
    10:00 +19°C° 0 mm 1 mps 740 mmHg 69%
    11:00 +21°C° 0 mm 1 mps 741 mmHg 62%
    12:00 +21°C° 0 mm 1 mps 741 mmHg 64%
    13:00 +21°C° 0 mm 1 mps 740 mmHg 66%
    14:00 +21°C° 0 mm 1 mps 740 mmHg 67%
    15:00 +19°C° 0.2 mm 1 mps 740 mmHg 75%
    16:00 +16°C° 0.2 mm 1 mps 741 mmHg 84%
    17:00 +14°C° 0.2 mm 1 mps 741 mmHg 92%
    18:00 +14°C° 0 mm 1 mps 741 mmHg 93%
    19:00 +13°C° 0 mm 1 mps 741 mmHg 94%
    20:00 +13°C° 0 mm 1 mps 741 mmHg 95%
    21:00 +12°C° 0 mm 1 mps 741 mmHg 95%
    22:00 +12°C° 0 mm 1 mps 741 mmHg 95%
    23:00 +12°C° 0 mm 1 mps 741 mmHg 94%

    Tomorrow, 16 November, Friday

    Time Temperature Precipitation Wind Pressure Humidity
    00:00 +12°C° 0 mm 1 mps 741 mmHg 94%
    01:00 +12°C° 0 mm 1 mps 741 mmHg 94%
    02:00 +11°C° 0 mm 1 mps 740 mmHg 94%
    03:00 +11°C° 0 mm 1 mps 740 mmHg 94%
    04:00 +11°C° 0 mm 1 mps 740 mmHg 94%
    05:00 +10°C° 0 mm 2 mps 740 mmHg 94%
    06:00 +12°C° 0 mm 2 mps 740 mmHg 92%
    07:00 +12°C° 0 mm 2 mps 740 mmHg 90%
    08:00 +13°C° 0 mm 2 mps 740 mmHg 88%
    09:00 +15°C° 0 mm 2 mps 740 mmHg 81%
    10:00 +17°C° 0 mm 2 mps 740 mmHg 74%
    11:00 +19°C° 0 mm 2 mps 740 mmHg 67%
    12:00 +19°C° 0 mm 2 mps 740 mmHg 66%
    13:00 +19°C° 0 mm 2 mps 739 mmHg 65%
    14:00 +20°C° 0 mm 2 mps 739 mmHg 64%
    15:00 +19°C° 0 mm 1 mps 739 mmHg 73%
    16:00 +16°C° 0 mm 1 mps 739 mmHg 82%
    17:00 +14°C° 0 mm 1 mps 738 mmHg 90%
    18:00 +13°C° 0 mm 1 mps 738 mmHg 92%
    19:00 +13°C° 0 mm 2 mps 738 mmHg 93%
    20:00 +12°C° 0 mm 2 mps 738 mmHg 94%
    21:00 +12°C° 0 mm 2 mps 738 mmHg 93%
    22:00 +12°C° 0 mm 2 mps 738 mmHg 93%
    23:00 +12°C° 0 mm 2 mps 737 mmHg 92%

    Day after tomorrow, 17 November, Saturday

    Time Temperature Precipitation Wind Pressure Humidity
    00:00 +12°C° 0 mm 2 mps 737 mmHg 91%
    01:00 +12°C° 0 mm 2 mps 737 mmHg 90%
    02:00 +12°C° 0 mm 2 mps 737 mmHg 89%
    03:00 +12°C° 0 mm 2 mps 737 mmHg 89%
    04:00 +12°C° 0 mm 2 mps 737 mmHg 89%
    05:00 +12°C° 0 mm 2 mps 736 mmHg 89%
    06:00 +12°C° 0 mm 2 mps 736 mmHg 86%
    07:00 +13°C° 0 mm 2 mps 737 mmHg 83%
    08:00 +13°C° 0 mm 3 mps 737 mmHg 80%
    09:00 +14°C° 0 mm 3 mps 736 mmHg 74%
    10:00 +17°C° 0 mm 3 mps 736 mmHg 68%
    11:00 +19°C° 0 mm 3 mps 736 mmHg 62%
    12:00 +19°C° 0 mm 3 mps 736 mmHg 62%
    13:00 +19°C° 0 mm 3 mps 735 mmHg 62%
    14:00 +19°C° 0 mm 3 mps 735 mmHg 62%
    15:00 +18°C° 0 mm 3 mps 735 mmHg 67%
    16:00 +16°C° 0 mm 3 mps 734 mmHg 71%
    17:00 +14°C° 0 mm 3 mps 734 mmHg 76%
    18:00 +14°C° 0 mm 3 mps 734 mmHg 76%
    19:00 +14°C° 0 mm 3 mps 734 mmHg 75%
    20:00 +14°C° 0 mm 3 mps 734 mmHg 74%
    21:00 +14°C° 0 mm 2 mps 733 mmHg 76%
    22:00 +14°C° 0 mm 2 mps 733 mmHg 78%
    23:00 +13°C° 0 mm 2 mps 733 mmHg 80%

    18 November, Sunday

    Time Temperature Precipitation Wind Pressure Humidity
    00:00 +13°C° 0 mm 2 mps 732 mmHg 81%
    01:00 +13°C° 0 mm 2 mps 732 mmHg 82%
    02:00 +12°C° 0 mm 2 mps 732 mmHg 83%
    03:00 +12°C° 0 mm 2 mps 732 mmHg 84%
    04:00 +12°C° 0 mm 2 mps 731 mmHg 84%
    05:00 +12°C° 0 mm 2 mps 731 mmHg 85%
    06:00 +13°C° 0.1 mm 2 mps 731 mmHg 83%
    07:00 +13°C° 0.1 mm 2 mps 731 mmHg 82%
    08:00 +13°C° 0.1 mm 2 mps 731 mmHg 81%
    09:00 +15°C° 0.1 mm 2 mps 731 mmHg 78%
    10:00 +16°C° 0.1 mm 2 mps 731 mmHg 75%
    11:00 +17°C° 0.1 mm 2 mps 731 mmHg 72%
    12:00 +16°C° 0.4 mm 2 mps 731 mmHg 76%
    13:00 +16°C° 0.4 mm 2 mps 731 mmHg 81%
    14:00 +15°C° 0.4 mm 2 mps 731 mmHg 86%
    15:00 +14°C° 0.6 mm 1 mps 731 mmHg 90%
    16:00 +14°C° 0.6 mm 1 mps 731 mmHg 93%
    17:00 +13°C° 0.6 mm 1 mps 731 mmHg 97%
    18:00 +12°C° 0.3 mm 1 mps 731 mmHg 97%
    19:00 +12°C° 0.3 mm 1 mps 731 mmHg 97%
    20:00 +12°C° 0.3 mm 1 mps 731 mmHg 97%
    21:00 +12°C° 0.3 mm 1 mps 731 mmHg 97%
    22:00 +12°C° 0.3 mm 1 mps 731 mmHg 97%
    23:00 +11°C° 0.3 mm 1 mps 731 mmHg 97%

    19 November, Monday

    Time Temperature Precipitation Wind Pressure Humidity
    00:00 +11°C° 0.1 mm 1 mps 731 mmHg 97%
    01:00 +10°C° 0.1 mm 1 mps 731 mmHg 98%
    02:00 +10°C° 0.1 mm 1 mps 731 mmHg 98%
    03:00 +10°C° 0 mm 1 mps 731 mmHg 98%
    04:00 +10°C° 0 mm 1 mps 731 mmHg 98%
    05:00 +9°C° 0 mm 1 mps 731 mmHg 98%
    06:00 +10°C° 0 mm 1 mps 732 mmHg 97%
    07:00 +10°C° 0 mm 1 mps 732 mmHg 96%
    08:00 +11°C° 0 mm 1 mps 733 mmHg 95%
    09:00 +13°C° 0 mm 1 mps 733 mmHg 88%
    10:00 +14°C° 0 mm 1 mps 733 mmHg 82%
    11:00 +15°C° 0 mm 0 mps 733 mmHg 75%
    12:00 +16°C° 0 mm 1 mps 733 mmHg 74%
    13:00 +16°C° 0 mm 1 mps 733 mmHg 73%
    14:00 +16°C° 0 mm 1 mps 733 mmHg 72%
    15:00 +14°C° 0 mm 1 mps 733 mmHg 80%
    16:00 +13°C° 0 mm 1 mps 733 mmHg 89%
    17:00 +10°C° 0 mm 0 mps 733 mmHg 97%
    18:00 +10°C° 0 mm 0 mps 733 mmHg 97%
    19:00 +9°C° 0 mm 0 mps 734 mmHg 98%
    20:00 +9°C° 0 mm 0 mps 734 mmHg 98%
    21:00 +9°C° 0 mm 0 mps 734 mmHg 98%
    22:00 +9°C° 0 mm 0 mps 734 mmHg 98%
    23:00 +8°C° 0 mm 0 mps 734 mmHg 98%

    20 November, Tuesday

    Time Temperature Precipitation Wind Pressure Humidity
    00:00 +9°C° 0 mm 1 mps 734 mmHg 98%
    01:00 +9°C° 0 mm 1 mps 734 mmHg 98%
    02:00 +9°C° 0 mm 1 mps 734 mmHg 98%
    03:00 +9°C° 0 mm 1 mps 734 mmHg 98%
    04:00 +9°C° 0 mm 1 mps 734 mmHg 98%
    05:00 +9°C° 0 mm 1 mps 734 mmHg 98%
    06:00 +9°C° 0 mm 1 mps 734 mmHg 97%
    07:00 +9°C° 0 mm 2 mps 734 mmHg 96%
    08:00 +9°C° 0 mm 2 mps 735 mmHg 95%
    09:00 +10°C° 0 mm 2 mps 735 mmHg 90%
    10:00 +13°C° 0 mm 2 mps 735 mmHg 85%
    11:00 +13°C° 0 mm 3 mps 735 mmHg 80%
    12:00 +13°C° 0.2 mm 3 mps 734 mmHg 81%
    13:00 +13°C° 0.2 mm 3 mps 734 mmHg 83%
    14:00 +13°C° 0.2 mm 3 mps 733 mmHg 85%
    15:00 +12°C° 1 mm 3 mps 733 mmHg 89%
    16:00 +11°C° 1 mm 3 mps 733 mmHg 93%
    17:00 +10°C° 1 mm 3 mps 733 mmHg 97%
    18:00 +10°C° 0.8 mm 3 mps 733 mmHg 97%
    19:00 +8°C° 0.8 mm 4 mps 734 mmHg 97%
    20:00 +8°C° 0.8 mm 4 mps 734 mmHg 97%
    21:00 +8°C° 0.8 mm 4 mps 734 mmHg 96%
    22:00 +8°C° 0.8 mm 5 mps 734 mmHg 95%
    23:00 +8°C° 0.8 mm 5 mps 734 mmHg 94%
    Show more